Location: Unspecified
(49.2170°N, 0.0000°E)
Time: 00:51:43
(UTC+00:00)

Vanguard 3 - Pass Details

Date: 29 June 2019
Orbit: 507 x 3264 km, 33.4° (Epoch: 20 July)

Event Time Altitude Azimuth Distance (km) Brightness Sun altitude
Rises 09:52:04 0° 237° (WSW) 7,114 11.8 53.4°
Reaches altitude 10° 09:57:42 10° 230° (SW) 5,881 11.5 54.2°
Maximum altitude 10:12:15 36° 174° (S) 3,228 11.2 56.1°
Drops below altitude 10° 10:21:50 10° 113° (ESE) 3,882 11.3 57.2°
Sets 10:24:42 0° 104° (ESE) 4,530 11.4 57.6°
